カタログに戻る

OPS 0856 DEB

LostPO
NORAD 23829·DEBRIS·🇺🇸 United States

打ち上げ Aug 19, 1966 から Vandenberg Space Force Base

Loading…

次のパス (今後24時間)

TLE

古いSource: Space-Track

元期: May 12, 2022, 04:51 UTC

1 23829U 66077F   22132.20221353  .00000008  00000-0  00000+0 0  9995
2 23829  90.1030 212.4341 1637911  83.5498 288.8390  8.65541044912648

AllMySatでOPS 0856 DEBをリアルタイム追跡

Download on the App Store